Regional Weather Roundup
Issued by NWS Northern Indiana

Home | Current Version | Previous Version | Graphics & Text | Print | Product List | Glossary On
Versions: 1 2 3 4 5 6 7 8 9 10 11 12 13 14 15 16 17 18 19 20 21 22 23 24 25 26 27 28 29 30 31 32 33 34 35 36 37 38 39 40 41 42 43 44 45 46 47 48 49 50
000
ASUS43 KIWX 310610
RWRIWX

KIWX WEATHER ROUNDUP
NATIONAL WEATHER SERVICE NORTHERN INDIANA
200 AM EDT THU JUL 31 2014

NOTE: "FAIR" INDICATES FEW OR NO CLOUDS BELOW 12,000 FEET WITH NO
SIGNIFICANT WEATHER AND/OR OBSTRUCTIONS TO VISIBILITY.

* THESE STATIONS ARE NOT UNDER NWS QUALITY CONTROL. THEY ALSO MAY NOT
  REPORT WEATHER SUCH AS PRECIPITATION OR FOG.

INZ001>027-310700-
NORTHERN INDIANA

CITY           SKY/WX    TMP DP  RH WIND       PRES   REMARKS
GARY*          CLEAR     59  57  94 CALM      30.05S FOG
VALPARAISO     PTCLDY    57  55  93 CALM      30.05S
6HR MIN TEMP:  56; 6HR MAX TEMP:  72;

MICHIGAN CITY* PTCLDY    55  55 100 CALM      30.05S FOG
LAPORTE*       MOCLDY    57  57 100 CALM      30.05S FOG
6HR MIN TEMP:  55; 6HR MAX TEMP:  69;

KNOX*            N/A     54  52  92 CALM      30.04S VSB<1/4
6HR MIN TEMP:  44; 6HR MAX TEMP:  86;

SOUTH BEND     CLEAR     58  54  86 CALM      30.05S
6HR MIN TEMP:  58; 6HR MAX TEMP:  72;

GOSHEN         PTCLDY    58  55  90 CALM      30.04S
6HR MIN TEMP:  58; 6HR MAX TEMP:  73;

MONTICELLO*    CLEAR     57  56  99 CALM      30.04S
6HR MIN TEMP:  57; 6HR MAX TEMP:  74;

LOGANSPORT*    CLEAR     55  54  94 CALM      30.06S
ROCHESTER*     PTCLDY    61  61 100 CALM      30.06R FOG
WARSAW*        PTCLDY    59  55  88 CALM      30.05S
ANGOLA*        CLEAR     54  54 100 CALM      30.04S
FORT WAYNE     PTCLDY    61  57  87 CALM      30.05S
6HR MIN TEMP:  60; 6HR MAX TEMP:  74;

HUNTINGTON*    PTCLDY    62  61  97 CALM      30.04F
6HR MIN TEMP:  60; 6HR MAX TEMP:  68;

PERU/GRISSOM   CLEAR     59  59 100 CALM      30.04F
6HR MIN TEMP:  59; 6HR MAX TEMP:  75;

MARION*        CLEAR     55  54  96 CALM      30.05S
6HR MIN TEMP:  32; 6HR MAX TEMP:  89;


$$
INZ028>050-310700-
CENTRAL INDIANA

CITY           SKY/WX    TMP DP  RH WIND       PRES   REMARKS
LAFAYETTE      PTCLDY    61  60  97 CALM      30.05R
6HR MIN TEMP:  59; 6HR MAX TEMP:  75;

KOKOMO*        CLEAR     57  55  94 CALM      30.05S
6HR MIN TEMP:  57; 6HR MAX TEMP:  75;

MUNCIE*        CLEAR     64  59  83 SW7       30.05S
6HR MIN TEMP:  64; 6HR MAX TEMP:  74;

INDIANAPOLIS   CLEAR     63  61  93 SW3       30.05S
6HR MIN TEMP:  62; 6HR MAX TEMP:  70;


$$
MIZ043>046-050>051-056>058-064>065-071>073-077>080-310700-
SOUTHWEST LOWER MICHIGAN

CITY           SKY/WX    TMP DP  RH WIND       PRES   REMARKS
BATTLE CREEK   CLEAR     55  49  80 SW5       30.03S
6HR MIN TEMP:  55; 6HR MAX TEMP:  70;

BENTON HARBOR  CLEAR     52  51  97 CALM      30.03F
6HR MIN TEMP:  51; 6HR MAX TEMP:  64;

COLDWATER*     CLEAR     55  54  96 CALM      30.04R FOG
6HR MIN TEMP:  55; 6HR MAX TEMP:  72;

HILLSDALE*     CLEAR     52  52 100 CALM      30.03S
6HR MIN TEMP:  52; 6HR MAX TEMP:  72;

HOLLAND        CLEAR     54  50  86 CALM      30.02F
6HR MIN TEMP:  53; 6HR MAX TEMP:  66;

GRAND RAPIDS   CLEAR     57  51  80 CALM      30.02S
6HR MIN TEMP:  56; 6HR MAX TEMP:  71;

KALAMAZOO      CLEAR     56  53  90 S3        30.03F
6HR MIN TEMP:  54; 6HR MAX TEMP:  70;

STURGIS*       CLEAR     54  54 100 CALM      30.04S FOG
THREE RIVERS*  FAIR      56  56  99 CALM      30.04S FOG

$$
OHZ001>008-015>018-024>025-310700-
NORTHWEST OHIO

CITY           SKY/WX    TMP DP  RH WIND       PRES   REMARKS
WAUSEON*       FAIR      54  52  94 CALM      30.03R
DEFIANCE       MOCLDY    60  54  80 CALM      30.03S
6HR MIN TEMP:  58; 6HR MAX TEMP:  75;

FINDLAY        MOCLDY    62  58  86 SW3       30.02S
6HR MIN TEMP:  61; 6HR MAX TEMP:  74;

TOLEDO EXPRESS CLEAR     56  53  90 W3        30.02R
6HR MIN TEMP:  55; 6HR MAX TEMP:  68;

TOLEDO METCALF CLEAR     60  55  83 CALM      30.02S
6HR MIN TEMP:  59; 6HR MAX TEMP:  67;

LIMA           PTCLDY    65  60  84 SW6       30.04S
6HR MIN TEMP:  64; 6HR MAX TEMP:  73; 6HR PCP: TRACE;


$$
&&


USA.gov is the U.S. government's official web portal to all federal, state and local government web resources and services.